Showing default

OPS 9432 (DSCS 2-2), 5588

Orbit data source: Space-Track

OPS 9432 (DSCS 2-2), 5588 is an American payload satellite in GEO that was launched on Wed, 03 Nov 1971 UTC via a TITAN IIIC launch vehicle from the Air Force Eastern Test Range (AFETR). Payload-class satellites include a variety of spacecraft equipped with specific instruments for various scientific and technological missions. These include communications satellites like Starlink; space stations such as the ISS; scientific satellites like the Hubble; Earth observation satellites from companies like Planet Labs, Umbra, and HawkEye 360; GPS; miniature CubeSats for education and research; and military/defense satellites.

Not visible in the next 10 days
Identifier
5588, 1971-095B
Orbit
GEO
Country
Flag of USUS
Related business
Manufacturer
TRW
Mission
Non-operational Defense Communications
Bus & Motor
DSCS II, Unknown motor
Mass
526 kg wet, ~500 kg dry
Launch date (UTC)
1971-11-03 (54 years ago)
Launch vehicle
TITAN IIIC
Launch site
Air Force Eastern Test Range (AFETR)
Object type
Payload
Rocket body
Debris
Shape & HBR
Cyl, Unknown HBR
Radar Cross Section
10.695 m², Large (>1 m²)

Expand to show TLE details & history
Last TLE update: 16 hours ago

TLE from 16 hours ago
0 OPS 9432 (DSCS 2-2)
1 05588U 71095B   25260.92891885 -.00000244  00000-0  00000-0 0  9994
2 05588   2.2526 263.4043 0002291  30.7314 184.5380  1.00289459 44633
Epoch: 2025-09-17T22:17Z
TLE epoch observation values (Epoch: 2025-09-17T22:17:38.588Z)
Latitude
-1.31515°
Longitude
147.14944°
Altitude
35,790.933 km
Speed
3.074 km/s
True Right ascension
07h 54m 37s
True Declination
-1° 18' 50"
Sunlit
Object was in daylight at epoch
Visualization orbit readout
Latitude
Unknown
Longitude
Unknown
Altitude
Unknown
Speed
Unknown
Apparent Right ascension
Unknown
Apparent Declination
Unknown
Sunlit
N/A
Visualization observer readout
Local Sidereal Time
06:39:59
Azimuth
Unknown
Elevation
Unknown
Doppler factor
Unknown
Orbital elements
Apogee altitude
35,792.368 km
Perigee altitude
35,773.05 km
Semi-major axis
42,160.846 km
Eccentricity
0.00023
Inclination
2.2526°
RAAN
263.4043°
Arg. of periapsis
30.7314°
True anomaly
184.53592°
Mean anomaly
184.538°
Eccentric anomaly
184.53696°
Mean motion
0.25071 °/min
Orbital period
1,435.9 mins
BSTAR
0
Loading maneuver chart data...
Computing Atmospheric mass density...
Loading historical data...
Loading historical data...
Loading historical data...
Loading historical data...
Loading historical data...
Loading historical data...
Loading historical data...
Other satellites on launch #95 in the year 1971 (1971-11-03 UTC)

Documentation

Showing up to 5 results
|